GW0092 Weather Reports


time (UTC)temp
C
wind
direction
speed
KPH
gust
KPH
rain 1hr
cm
rain 24hr
cm
rain mn
cm
humidity
%
barometer
mb
20260504044602 7 0 0.0 1.6 0.00 0.00 0.00 81 1017.2
20260504043054 6 0 0.0 4.8 0.00 0.00 0.00 80 1017.2
20260504041553 5 0 0.0 0.0 0.00 0.00 0.00 78 1017.1
20260504040057 5 0 0.0 0.0 0.00 0.00 0.00 77 1016.8
20260504034615 5 0 0.0 0.0 0.00 0.00 0.00 77 1016.8
20260504033115 5 0 0.0 0.0 0.00 0.00 0.00 77 1016.8
20260504031604 6 0 0.0 0.0 0.00 0.00 0.00 75 1016.6
20260504030054 6 0 0.0 0.0 0.00 0.00 0.00 74 1016.6
20260504024601 6 0 0.0 0.0 0.00 0.00 0.00 73 1016.6
20260504023055 6 0 0.0 0.0 0.00 0.00 0.00 70 1016.5
20260504021554 7 0 0.0 0.0 0.00 0.00 0.00 69 1016.5
20260504020051 7 0 0.0 0.0 0.00 0.00 0.00 69 1016.6
20260504014603 7 0 0.0 0.0 0.00 0.00 0.00 70 1016.7
20260504013055 7 0 0.0 0.0 0.00 0.00 0.00 68 1016.3
20260504011558 7 0 0.0 0.0 0.00 0.00 0.00 67 1016.1
20260504010058 7 0 0.0 0.0 0.00 0.00 0.00 64 1016.0
20260504004553 8 0 0.0 0.0 0.00 0.00 0.00 63 1015.8
20260504003100 9 0 0.0 0.0 0.00 0.00 0.00 59 1015.8
20260504001601 10 0 0.0 0.0 0.00 0.00 0.00 55 1015.4
20260504000053 11 0 0.0 1.6 0.00 0.00 0.00 51 1015.3
20260503234554 12 0 0.0 6.4 0.00 0.00 0.00 45 1015.4
20260503233053 13 342 1.6 9.7 0.00 0.00 0.00 42 1015.3
20260503231551 13 287 3.2 9.7 0.00 0.00 0.00 41 1015.3
20260503230058 15 312 4.8 12.9 0.00 0.00 0.00 39 1015.2
20260503224551 15 335 8.0 19.3 0.00 0.00 0.00 38 1015.1
20260503223052 15 305 8.0 16.1 0.00 0.00 0.00 38 1015.1
20260503221559 15 21 12.9 22.5 0.00 0.00 0.00 37 1015.1
20260503220055 15 316 8.0 17.7 0.00 0.00 0.00 38 1015.1
20260503214549 15 301 12.9 22.5 0.00 0.00 0.00 37 1014.9
20260503213057 15 331 8.0 25.7 0.00 0.00 0.00 37 1014.8
20260503211554 15 4 11.3 25.7 0.00 0.00 0.00 37 1014.6
20260503204556 15 340 9.7 32.2 0.00 0.00 0.00 38 1014.7
20260503203056 15 310 8.0 22.5 0.00 0.00 0.00 37 1014.6
20260503201554 15 281 12.9 27.4 0.00 0.00 0.00 36 1014.5
20260503200057 15 308 9.7 25.7 0.00 0.00 0.00 37 1014.7
20260503194553 15 348 14.5 24.1 0.00 0.00 0.00 36 1014.7
20260503193054 15 321 12.9 25.7 0.00 0.00 0.00 36 1014.9
20260503191551 15 327 12.9 25.7 0.00 0.00 0.00 37 1014.8
20260503190055 15 335 12.9 24.1 0.00 0.00 0.00 37 1014.8
20260503184610 14 269 12.9 29.0 0.00 0.00 0.00 38 1014.9
20260503183106 14 346 17.7 30.6 0.00 0.00 0.00 37 1015.3
20260503181607 14 323 11.3 27.4 0.00 0.00 0.00 39 1015.5
20260503180056 13 333 16.1 37.0 0.00 0.00 0.00 38 1015.5
20260503174556 13 347 12.9 27.4 0.00 0.00 0.00 39 1015.5
20260503173058 13 297 11.3 27.4 0.00 0.00 0.00 41 1015.4
20260503171552 13 352 14.5 27.4 0.00 0.00 0.00 41 1015.4
20260503081622 7 355 6.4 12.9 0.00 0.00 0.00 70 1012.4
20260503080111 8 331 8.0 14.5 0.00 0.00 0.00 68 1012.2
20260503071554 7 323 4.8 11.3 0.00 0.00 0.00 69 1011.9
20260503054604 9 333 4.8 14.5 0.00 0.00 0.00 63 1011.6
20260503053055 9 330 3.2 6.4 0.00 0.00 0.00 63 1011.5
20260503051557 10 322 3.2 8.0 0.00 0.00 0.00 62 1011.5